Weather in Poselok Romodanovskiy Makhorkosovkhoz

Russia / Republic of Mordovia     54°32′45″N   45°23′32″E
temp.,
°C
wind,
m/s
gust,
m/s
humid.,
%
clouds,
%
prec.,
mm/h
press.,
hPa
HPBL,
m
8 august, mon
mon800:00+19sse22615 0.0 101912
03:00+18ese00655 0.0 102011
06:00+20se11675 0.0 102011
09:00+25sse11491 0.0 1020345
12:00+29wsw12390 0.0 10201348
15:00+29nw24344 0.0 10192853
18:00+25wnw474797 0.0 1019124
21:00+24ene114222 0.0 101911
9 august, tue
tue900:00+21s22522 0.0 102017
03:00+19s11600 0.0 102011
06:00+20ssw11665 0.0 102011
09:00+25w11495 0.0 1020404
12:00+29wsw114012 0.0 10191234
15:00+30ese123495 0.0 10192590
18:00+27se345388 0.0 101867
21:00+21ene115834 0.1 101811
10 august, wed
wed1000:00+18nne3481100 0.3 101988
03:00+17e369172 0.3 1018124
06:00+18nne249091 0.0 1019161
09:00+22ene2171100 0.0 1019432
12:00+25wnw2359100 0.0 1019927
15:00+26nw2349100 0.0 10181384
18:00+23nnw356691 0.0 1019246
21:00+18nw3685100 0.0 1019140
11 august, thu
thu1100:00+17nnw389060 0.0 1020275
03:00+15nnw389380 0.0 1021223
06:00+15nnw288820 0.0 1022271
09:00+19n45640 0.0 1023771
12:00+22nne45500 0.0 10231366
15:00+23ne44430 0.0 10231620
18:00+21nne35570 0.0 1023203
21:00+16nne22660 0.0 102412
12 august, fri
fri1200:00+15ese007029 0.0 102411
03:00+14w117425 0.0 102511
06:00+15wsw1174100 0.0 102524
09:00+20w335698 0.0 1025590
12:00+23wnw444518 0.0 10241545
15:00+25wnw45425 0.0 10221857
18:00+23nw34550 0.0 102194
21:00+18wnw22620 0.0 102211